Regional Weather Roundup
Issued by NWS

Home | Current Version | Previous Version | Text Only | Print | Product List | Glossary Off
Versions: 1 2 3 4 5 6 7 8 9 10 11 12 13 14 15 16 17 18 19 20 21 22 23 24 25 26 27 28 29 30 31 32 33 34 35 36 37 38 39 40 41 42 43 44 45 46 47 48 49 50

000
ASUS43 KDTX 291501
RWRMI
MICHIGAN HOURLY REGIONAL WEATHER ROUNDUP
NATIONAL WEATHER SERVICE DETROIT/PONTIAC MI
1100 AM EDT FRI MAY 29 2015

NOTE: "FAIR" INDICATES FEW OR NO CLOUDS BELOW 12,000 FEET WITH NO
SIGNIFICANT WEATHER AND/OR OBSTRUCTION TO VISIBILITY.

MIZ047>049-052>055-059>063-066>070-074>076-081>083-291600-
SOUTHEAST LOWER MICHIGAN

CITY           SKY/WX    TMP DP  RH WIND       PRES   REMARKS
ADRIAN         LGT RAIN  72  65  78 S10       30.14R
ALMA           CLOUDY    74  64  71 S8        30.10S
ANN ARBOR      PTSUNNY   76  65  68 S5        30.13S
BAD AXE        CLOUDY    75  58  55 S16       30.12F
CARO           CLOUDY    74  62  67 S9        30.11S
DETROIT CITY   PTSUNNY   77  61  57 S9        30.14S
DETROIT        CLOUDY    77  63  61 S9        30.14S
FLINT          CLOUDY    78  63  59 S10       30.12S
GROSSE ILE     CLOUDY    66  61  82 S5        30.13S
HILLSDALE      PTSUNNY   76  67  71 S8        30.14S
HOWELL         PTSUNNY   78  63  60 S8        30.12S

CITY           SKY/WX    TMP DP  RH WIND       PRES   REMARKS
JACKSON        PTSUNNY   77  65  66 S9        30.12S
LAMBERTVILLE   CLOUDY    72  63  73 SW3       30.15R
LANSING        PTSUNNY   76  65  68 S10       30.11S
LAPEER         FAIR      74  60  62 S9        30.14R
MASON          PTSUNNY   74  64  72 S9        30.12S
MONROE         CLOUDY    73  64  73 S3        30.12S
MT. CLEMENS    CLOUDY    72  61  67 S7        30.13S
PONTIAC        CLOUDY    75  62  64 S10       30.13F
PORT HOPE        N/A     75  58  55 S7        30.10F
PORT HURON     CLOUDY    73  61  64 SE6       30.15S
TRI CITIES     PTSUNNY   75  61  61 S10       30.10S
MIDLAND        FAIR      74  61  61 S6        30.09S
TROY           CLOUDY    77  62  58 S10       30.15S
SAGINAW HB     PTSUNNY   75  61  60 S10       30.10S
$$
MIZ043>046-050>051-056>058-064>065-071>073-077>080-291600-
SOUTHWEST LOWER MICHIGAN

CITY           SKY/WX    TMP DP  RH WIND       PRES   REMARKS
BATTLE CREEK   PTSUNNY   76  64  66 S12       30.12S
BENTON HARBOR  MOSUNNY   77  66  68 S10       30.07S
BIG RAPIDS     CLOUDY    71  60  69 S6        30.08R
COLDWATER      PTSUNNY   75  62  63 S8        30.13S
FREMONT        CLOUDY    71  64  76 S6        30.06S
HOLLAND        PTSUNNY   76  65  68 S12       30.08S
GRAND RAPIDS   CLOUDY    74  64  71 S8        30.09R
IONIA          PTSUNNY   76  63  62 S12       30.09S
KALAMAZOO      PTSUNNY   75  65  70 S9        30.11S
LUDINGTON      CLOUDY    76  65  69 S12G20    30.04S
MARSHALL       PTSUNNY   77  65  65 S12       30.12R
MOUNT PLEASANT CLOUDY    72  61  68 S7        30.08F
MUSKEGON       CLOUDY    76  63  64 S15G24    30.05F
SOUTH HAVEN    MOSUNNY   77  64  63 S6        30.07S
$$
MIZ016>042-291600-
NORTHERN LOWER MICHIGAN

CITY           SKY/WX    TMP DP  RH WIND       PRES   REMARKS
ALPENA         CLOUDY    72  58  61 S14       30.07F
BEAVER ISLAND  CLOUDY    67  57  68 S8        30.01S
BELLAIRE       CLOUDY    74  60  60 S5        30.03R
CADILLAC       CLOUDY    72  61  69 S9        30.06S
CHARLEVOIX     CLOUDY    72  60  67 S8        30.04S
FRANKFORT      CLOUDY    74  57  56 S10G17    30.02S
GAYLORD        CLOUDY    71  61  70 S12       30.06S
GRAYLING       CLOUDY    70  59  67 S6        30.08S
HARBOR SPRINGS CLOUDY    71  59  64 CALM      30.02F
HOUGHTON LAKE  CLOUDY    69  59  70 S6        30.08F
MANISTEE       CLOUDY    73  63  68 SW10G17   30.03F
OSCODA         CLOUDY    74  58  58 S13       30.09F
PELLSTON       CLOUDY    72  59  63 S6        30.03S
ROGERS CITY    CLOUDY    73  60  63 S8        30.05F
TRAVERSE CITY  CLOUDY    74  61  63 SW13G21   30.00S
$$
MIZ007>008-015-291600-
EASTERN UPPER MICHIGAN

CITY           SKY/WX    TMP DP  RH WIND       PRES   REMARKS
KINROSS        CLOUDY    66  57  72 SE10      30.03S
MACKINAC ISLAN CLOUDY    67  56  70 SE7       30.02S
NEWBERRY       CLOUDY    65  57  74 S10G16    30.00S
S. S. MARIE    CLOUDY    65  55  70 VRB5      30.03S
$$
MIZ004>006-011>014-085-291600-
CENTRAL UPPER MICHIGAN

CITY           SKY/WX    TMP DP  RH WIND       PRES   REMARKS
MANISTIQUE     DRIZZLE   56  51  85 S7        30.00F
ESCANABA       CLOUDY    59  54  82 S6        29.97S
MENOMINEE      CLOUDY    64  57  77 SW6       29.97R
SAWYER-GWINN   CLOUDY    63  55  77 S13       29.96R
$$
MIZ001>003-009>011-084-291600-
WESTERN UPPER MICHIGAN

CITY           SKY/WX    TMP DP  RH WIND       PRES   REMARKS
IRON MOUNTAIN  CLOUDY    64  58  80 S6        29.93F
HOUGHTON       CLOUDY    66  57  72 S7        29.88F
COPPER HARBOR    N/A     66  56  70 W8G16     29.87F
IRONWOOD       CLOUDY    64  61  88 S8        29.85S
$$

ABBREVIATIONS USED IN REMARKS
   TC - TEMPERATURE IN CELSIUS
  WCI - WIND CHILL INDEX
   HX - HEAT INDEX
  VSB - VISIBILITY



USA.gov is the U.S. government's official web portal to all federal, state and local government web resources and services.